QPF
0.24 0.24 0.22 0.16 0.11 0.08 0.06 0.04 0.02 0.01 0.00 0.00 0.00 0.00 0.00 0.00 0.00 0.00 0.00 0.00 0.00 0.01 0.01 0.02 0.03 0.04 0.06 0.07 0.09 0.09 0.10 0.10 0.09 0.09 0.07 0.04 0.02 0.01 0.01 0.00 0.00 0.00 0.00
0.20 0.21 0.19 0.13 0.08 0.06 0.04 0.02 0.01 0.00 0.00 0.00 0.00 0.00 0.00 0.00 0.00 0.00 0.00 0.00 0.00 0.01 0.01 0.02 0.03 0.05 0.06 0.07 0.08 0.08 0.11 0.12 0.12 0.12 0.12 0.09 0.05 0.04 0.02 0.01 0.01 0.01 0.00
0.18 0.18 0.16 0.11 0.09 0.07 0.04 0.02 0.01 0.01 0.01 0.00 0.00 0.00 0.00 0.00 0.00 0.00 0.00 0.00 0.00 0.00 0.00 0.01 0.02 0.03 0.06 0.08 0.08 0.08 0.11 0.13 0.13 0.13 0.15 0.15 0.11 0.07 0.04 0.03 0.03 0.02 0.01
0.17 0.17 0.16 0.12 0.08 0.06 0.04 0.02 0.02 0.01 0.01 0.01 0.01 0.01 0.00 0.00 0.01 0.01 0.01 0.00 0.00 0.00 0.00 0.00 0.01 0.02 0.04 0.06 0.06 0.07 0.11 0.13 0.16 0.17 0.17 0.17 0.16 0.12 0.08 0.06 0.05 0.03 0.02
0.16 0.16 0.15 0.13 0.09 0.06 0.04 0.03 0.03 0.03 0.02 0.02 0.02 0.02 0.01 0.01 0.01 0.01 0.01 0.00 0.00 0.00 0.00 0.00 0.00 0.01 0.01 0.02 0.03 0.05 0.08 0.11 0.14 0.15 0.16 0.17 0.17 0.17 0.13 0.10 0.09 0.07 0.04
0.15 0.13 0.11 0.10 0.08 0.06 0.04 0.04 0.03 0.03 0.03 0.03 0.03 0.04 0.04 0.03 0.03 0.02 0.01 0.01 0.01 0.01 0.01 0.01 0.01 0.00 0.01 0.01 0.01 0.02 0.04 0.06 0.10 0.13 0.15 0.15 0.17 0.19 0.20 0.18 0.14 0.11 0.07
0.06 0.05 0.04 0.03 0.03 0.03 0.03 0.02 0.02 0.02 0.02 0.03 0.03 0.03 0.03 0.05 0.04 0.01 0.02 0.03 0.04 0.04 0.03 0.02 0.01 0.00 0.00 0.00 0.01 0.01 0.02 0.02 0.03 0.07 0.11 0.14 0.18 0.19 0.19 0.19 0.18 0.18 0.16
0.01 0.01 0.01 0.01 0.00 0.01 0.01 0.01 0.01 0.01 0.01 0.01 0.02 0.02 0.03 0.03 0.03 0.02 0.02 0.03 0.05 0.06 0.05 0.03 0.02 0.01 0.01 0.01 0.01 0.01 0.01 0.01 0.01 0.02 0.04 0.06 0.09 0.13 0.16 0.17 0.19 0.20 0.18
0.00 0.00 0.00 0.00 0.00 0.00 0.00 0.00 0.00 0.00 0.00 0.00 0.01 0.01 0.02 0.02 0.02 0.02 0.04 0.07 0.09 0.10 0.06 0.05 0.04 0.03 0.03 0.02 0.01 0.02 0.03 0.01 0.00 0.01 0.02 0.04 0.06 0.06 0.07 0.10 0.13 0.15 0.15
0.00 0.00 0.00 0.00 0.00 0.00 0.00 0.00 0.00 0.00 0.00 0.00 0.00 0.01 0.01 0.02 0.02 0.03 0.05 0.09 0.12 0.12 0.08 0.05 0.06 0.05 0.04 0.02 0.01 0.02 0.04 0.02 0.01 0.01 0.01 0.01 0.02 0.03 0.04 0.06 0.11 0.15 0.16
0.00 0.00 0.00 0.00 0.00 0.00 0.00 0.00 0.00 0.00 0.00 0.00 0.00 0.00 0.01 0.01 0.03 0.04 0.06 0.07 0.10 0.11 0.09 0.08 0.07 0.09 0.04 0.03 0.02 0.01 0.02 0.01 0.01 0.01 0.01 0.01 0.01 0.02 0.02 0.02 0.05 0.07 0.10
0.00 0.00 0.00 0.00 0.00 0.00 0.00 0.00 0.00 0.00 0.00 0.00 0.00 0.00 0.01 0.01 0.02 0.03 0.05 0.07 0.09 0.09 0.08 0.07 0.07 0.09 0.06 0.04 0.02 0.02 0.02 0.01 0.01 0.01 0.02 0.02 0.02 0.02 0.01 0.01 0.02 0.03 0.04
0.00 0.00 0.00 0.00 0.00 0.00 0.00 0.00 0.00 0.00 0.00 0.00 0.00 0.00 0.00 0.01 0.01 0.02 0.03 0.04 0.06 0.05 0.06 0.07 0.06 0.05 0.04 0.03 0.03 0.02 0.02 0.01 0.02 0.03 0.04 0.02 0.01 0.01 0.01 0.01 0.01 0.01 0.01
0.00 0.00 0.00 0.00 0.00 0.00 0.00 0.00 0.00 0.00 0.00 0.00 0.00 0.00 0.00 0.00 0.00 0.01 0.01 0.02 0.03 0.05 0.07 0.08 0.06 0.04 0.03 0.02 0.01 0.02 0.01 0.01 0.02 0.03 0.03 0.02 0.01 0.01 0.02 0.01 0.01 0.01 0.02
0.00 0.00 0.00 0.00 0.00 0.00 0.00 0.00 0.00 0.00 0.00 0.00 0.00 0.00 0.00 0.00 0.00 0.01 0.01 0.01 0.01 0.01 0.03 0.04 0.04 0.03 0.03 0.03 0.03 0.02 0.02 0.03 0.03 0.03 0.03 0.02 0.02 0.02 0.02 0.01 0.01 0.01 0.02
0.00 0.00 0.00 0.00 0.00 0.00 0.00 0.00 0.00 0.00 0.00 0.00 0.00 0.00 0.00 0.00 0.00 0.00 0.01 0.00 0.01 0.01 0.03 0.03 0.03 0.03 0.04 0.03 0.02 0.02 0.02 0.02 0.02 0.03 0.03 0.03 0.03 0.02 0.02 0.01 0.01 0.02 0.02
0.00 0.00 0.00 0.00 0.00 0.00 0.00 0.00 0.00 0.00 0.00 0.00 0.00 0.00 0.00 0.01 0.01 0.00 0.01 0.01 0.01 0.02 0.03 0.03 0.02 0.02 0.03 0.02 0.02 0.02 0.02 0.01 0.01 0.02 0.02 0.02 0.02 0.01 0.01 0.01 0.01 0.01 0.02
0.00 0.00 0.00 0.00 0.00 0.00 0.00 0.00 0.00 0.01 0.01 0.00 0.00 0.00 0.00 0.00 0.00 0.01 0.01 0.01 0.01 0.01 0.01 0.01 0.02 0.02 0.03 0.03 0.02 0.02 0.02 0.02 0.02 0.01 0.01 0.01 0.01 0.01 0.01 0.01 0.01 0.01 0.01
0.00 0.00 0.00 0.00 0.00 0.00 0.00 0.00 0.00 0.00 0.00 0.00 0.00 0.00 0.00 0.00 0.00 0.00 0.01 0.01 0.01 0.00 0.01 0.00 0.01 0.02 0.03 0.03 0.02 0.01 0.01 0.01 0.00 0.00 0.00 0.00 0.00 0.01 0.01 0.01 0.01 0.01 0.01
0.00 0.00 0.00 0.00 0.00 0.00 0.00 0.00 0.00 0.00 0.00 0.00 0.00 0.00 0.00 0.00 0.00 0.00 0.00 0.01 0.01 0.00 0.01 0.00 0.01 0.01 0.01 0.01 0.01 0.00 0.00 0.00 0.00 0.00 0.00 0.00 0.00 0.00 0.01 0.01 0.01 0.01 0.01
0.00 0.00 0.00 0.00 0.00 0.00 0.00 0.00 0.00 0.00 0.00 0.00 0.00 0.00 0.00 0.00 0.00 0.01 0.00 0.00 0.00 0.00 0.00 0.00 0.00 0.00 0.00 0.00 0.00 0.00 0.00 0.00 0.00 0.00 0.00 0.00 0.00 0.01 0.01 0.01 0.01 0.01 0.01
0.00 0.00 0.00 0.00 0.00 0.00 0.00 0.00 0.00 0.00 0.00 0.00 0.00 0.00 0.00 0.00 0.00 0.00 0.00 0.00 0.00 0.00 0.00 0.00 0.00 0.00 0.00 0.00 0.00 0.00 0.00 0.00 0.00 0.00 0.00 0.00 0.00 0.00 0.01 0.01 0.01 0.01 0.01
0.00 0.00 0.00 0.00 0.00 0.00 0.00 0.00 0.00 0.00 0.00 0.00 0.00 0.00 0.00 0.00 0.00 0.00 0.00 0.00 0.00 0.00 0.00 0.00 0.00 0.00 0.00 0.00 0.00 0.00 0.00 0.00 0.00 0.00 0.00 0.00 0.00 0.00 0.01 0.01 0.01 0.01 0.01
0.00 0.00 0.00 0.00 0.00 0.00 0.00 0.00 0.00 0.00 0.00 0.00 0.00 0.00 0.00 0.00 0.00 0.00 0.00 0.00 0.00 0.00 0.00 0.00 0.00 0.00 0.00 0.00 0.00 0.00 0.00 0.00 0.00 0.00 0.00 0.00 0.00 0.00 0.00 0.00 0.00 0.00 0.01
0.00 0.00 0.00 0.00 0.00 0.00 0.00 0.00 0.00 0.00 0.00 0.00 0.00 0.00 0.00 0.00 0.00 0.00 0.00 0.00 0.00 0.00 0.00 0.00 0.00 0.00 0.00 0.00 0.00 0.00 0.00 0.00 0.00 0.00 0.00 0.00 0.00 0.00 0.00 0.00 0.00 0.00 0.00
0.00 0.00 0.00 0.00 0.00 0.00 0.00 0.00 0.00 0.00 0.00 0.00 0.00 0.00 0.00 0.00 0.00 0.00 0.00 0.00 0.00 0.00 0.00 0.00 0.00 0.00 0.00 0.00 0.00 0.00 0.00 0.00 0.00 0.00 0.00 0.00 0.00 0.00 0.00 0.00 0.00 0.00 0.00
MSLP
1012.95 1013.04 1013.11 1013.13 1013.10 1013.01 1012.88 1012.73 1012.59 1012.48 1012.42 1012.43 1012.53 1012.70 1012.93 1013.18 1013.45 1013.69 1013.89 1014.04 1014.14 1014.20 1014.23 1014.24 1014.27 1014.31 1014.39 1014.49 1014.62 1014.75 1014.89 1015.00 1015.09 1015.16 1015.20 1015.23 1015.27 1015.34 1015.46 1015.64 1015.87 1016.17 1016.51
1013.37 1013.37 1013.34 1013.28 1013.18 1013.04 1012.87 1012.70 1012.55 1012.44 1012.40 1012.43 1012.54 1012.73 1012.96 1013.22 1013.48 1013.71 1013.89 1014.01 1014.08 1014.09 1014.07 1014.03 1014.01 1014.01 1014.05 1014.13 1014.26 1014.41 1014.57 1014.74 1014.88 1015.00 1015.08 1015.14 1015.19 1015.25 1015.32 1015.44 1015.60 1015.82 1016.08
1013.68 1013.61 1013.53 1013.42 1013.27 1013.11 1012.93 1012.75 1012.60 1012.49 1012.44 1012.47 1012.58 1012.74 1012.95 1013.19 1013.42 1013.62 1013.78 1013.87 1013.91 1013.90 1013.85 1013.80 1013.75 1013.73 1013.75 1013.83 1013.95 1014.12 1014.32 1014.52 1014.71 1014.88 1015.00 1015.10 1015.16 1015.20 1015.24 1015.30 1015.39 1015.52 1015.70
1013.94 1013.84 1013.72 1013.60 1013.44 1013.27 1013.09 1012.92 1012.76 1012.65 1012.58 1012.58 1012.64 1012.76 1012.92 1013.11 1013.28 1013.44 1013.56 1013.63 1013.66 1013.64 1013.59 1013.54 1013.49 1013.47 1013.50 1013.58 1013.72 1013.90 1014.11 1014.34 1014.56 1014.76 1014.93 1015.05 1015.12 1015.16 1015.19 1015.20 1015.23 1015.28 1015.37
1014.22 1014.11 1014.00 1013.88 1013.74 1013.58 1013.40 1013.23 1013.06 1012.92 1012.82 1012.77 1012.77 1012.81 1012.89 1012.99 1013.10 1013.20 1013.28 1013.33 1013.35 1013.34 1013.31 1013.28 1013.26 1013.26 1013.30 1013.39 1013.53 1013.71 1013.92 1014.16 1014.39 1014.61 1014.80 1014.94 1015.03 1015.08 1015.10 1015.09 1015.08 1015.07 1015.10
1014.57 1014.47 1014.38 1014.28 1014.16 1014.02 1013.86 1013.68 1013.50 1013.32 1013.17 1013.05 1012.96 1012.91 1012.89 1012.90 1012.93 1012.97 1013.00 1013.03 1013.05 1013.06 1013.06 1013.07 1013.08 1013.11 1013.16 1013.25 1013.38 1013.54 1013.74 1013.95 1014.17 1014.38 1014.57 1014.73 1014.84 1014.91 1014.94 1014.94 1014.91 1014.89 1014.87
1014.99 1014.92 1014.86 1014.79 1014.70 1014.58 1014.42 1014.24 1014.03 1013.82 1013.61 1013.41 1013.23 1013.08 1012.97 1012.88 1012.83 1012.80 1012.79 1012.80 1012.82 1012.85 1012.88 1012.93 1012.97 1013.02 1013.09 1013.17 1013.27 1013.39 1013.53 1013.70 1013.88 1014.06 1014.24 1014.40 1014.54 1014.64 1014.70 1014.73 1014.72 1014.71 1014.68
1015.47 1015.43 1015.41 1015.36 1015.29 1015.19 1015.03 1014.84 1014.62 1014.37 1014.11 1013.84 1013.59 1013.35 1013.14 1012.97 1012.84 1012.75 1012.70 1012.69 1012.71 1012.76 1012.82 1012.89 1012.96 1013.02 1013.08 1013.14 1013.19 1013.25 1013.33 1013.42 1013.54 1013.67 1013.82 1013.98 1014.13 1014.27 1014.38 1014.46 1014.51 1014.53 1014.53
1015.95 1015.95 1015.95 1015.93 1015.87 1015.78 1015.63 1015.44 1015.20 1014.93 1014.63 1014.32 1014.02 1013.72 1013.44 1013.21 1013.01 1012.87 1012.78 1012.74 1012.75 1012.80 1012.88 1012.96 1013.04 1013.11 1013.15 1013.17 1013.17 1013.16 1013.16 1013.17 1013.21 1013.28 1013.39 1013.54 1013.70 1013.87 1014.04 1014.18 1014.29 1014.37 1014.41
1016.38 1016.40 1016.42 1016.41 1016.37 1016.29 1016.15 1015.97 1015.74 1015.47 1015.17 1014.84 1014.51 1014.18 1013.86 1013.58 1013.33 1013.15 1013.02 1012.95 1012.94 1012.99 1013.06 1013.14 1013.22 1013.27 1013.30 1013.28 1013.23 1013.15 1013.07 1013.00 1012.96 1012.97 1013.03 1013.15 1013.32 1013.52 1013.73 1013.93 1014.11 1014.25 1014.34
1016.72 1016.75 1016.78 1016.79 1016.75 1016.68 1016.57 1016.41 1016.20 1015.96 1015.68 1015.37 1015.05 1014.71 1014.38 1014.07 1013.79 1013.57 1013.40 1013.30 1013.26 1013.27 1013.32 1013.40 1013.46 1013.51 1013.51 1013.46 1013.37 1013.24 1013.10 1012.96 1012.86 1012.81 1012.83 1012.92 1013.07 1013.28 1013.53 1013.77 1014.00 1014.19 1014.32
1016.94 1016.98 1017.01 1017.03 1017.01 1016.96 1016.87 1016.75 1016.59 1016.39 1016.16 1015.90 1015.61 1015.30 1014.97 1014.65 1014.35 1014.09 1013.88 1013.74 1013.66 1013.63 1013.66 1013.71 1013.76 1013.79 1013.79 1013.73 1013.62 1013.46 1013.28 1013.11 1012.96 1012.86 1012.83 1012.89 1013.02 1013.22 1013.47 1013.73 1013.98 1014.19 1014.35
1017.06 1017.10 1017.13 1017.15 1017.15 1017.13 1017.08 1017.00 1016.91 1016.78 1016.62 1016.42 1016.18 1015.91 1015.60 1015.29 1014.98 1014.69 1014.44 1014.24 1014.11 1014.05 1014.03 1014.05 1014.09 1014.12 1014.11 1014.06 1013.96 1013.81 1013.62 1013.43 1013.26 1013.12 1013.06 1013.07 1013.17 1013.34 1013.56 1013.81 1014.05 1014.26 1014.41
1017.10 1017.14 1017.18 1017.21 1017.22 1017.23 1017.22 1017.21 1017.18 1017.12 1017.03 1016.91 1016.74 1016.51 1016.25 1015.95 1015.63 1015.32 1015.03 1014.79 1014.61 1014.50 1014.44 1014.43 1014.46 1014.48 1014.49 1014.46 1014.39 1014.26 1014.09 1013.91 1013.73 1013.58 1013.48 1013.46 1013.51 1013.62 1013.79 1013.99 1014.19 1014.37 1014.50
1017.11 1017.15 1017.19 1017.23 1017.26 1017.30 1017.34 1017.38 1017.41 1017.43 1017.42 1017.37 1017.26 1017.09 1016.87 1016.59 1016.28 1015.96 1015.65 1015.37 1015.15 1014.99 1014.90 1014.86 1014.87 1014.90 1014.92 1014.92 1014.88 1014.80 1014.67 1014.51 1014.34 1014.18 1014.05 1013.98 1013.97 1014.02 1014.12 1014.25 1014.39 1014.51 1014.59
1017.11 1017.15 1017.20 1017.25 1017.30 1017.37 1017.44 1017.53 1017.62 1017.70 1017.76 1017.77 1017.73 1017.63 1017.45 1017.21 1016.92 1016.61 1016.29 1015.99 1015.73 1015.54 1015.42 1015.36 1015.36 1015.39 1015.42 1015.45 1015.44 1015.39 1015.30 1015.16 1015.00 1014.84 1014.69 1014.58 1014.50 1014.48 1014.50 1014.54 1014.60 1014.66 1014.68
1017.12 1017.17 1017.22 1017.28 1017.35 1017.44 1017.55 1017.67 1017.80 1017.93 1018.04 1018.12 1018.14 1018.09 1017.97 1017.78 1017.53 1017.24 1016.94 1016.64 1016.38 1016.17 1016.03 1015.95 1015.93 1015.95 1015.99 1016.03 1016.04 1016.01 1015.94 1015.83 1015.68 1015.51 1015.33 1015.17 1015.04 1014.94 1014.88 1014.84 1014.82 1014.80 1014.77
1017.14 1017.20 1017.26 1017.33 1017.42 1017.52 1017.64 1017.79 1017.94 1018.11 1018.26 1018.38 1018.46 1018.47 1018.42 1018.29 1018.10 1017.87 1017.60 1017.34 1017.09 1016.88 1016.73 1016.64 1016.60 1016.60 1016.63 1016.65 1016.66 1016.64 1016.58 1016.46 1016.31 1016.13 1015.92 1015.72 1015.54 1015.37 1015.24 1015.13 1015.04 1014.96 1014.87
1017.15 1017.22 1017.29 1017.37 1017.47 1017.58 1017.71 1017.86 1018.03 1018.22 1018.40 1018.56 1018.68 1018.76 1018.77 1018.72 1018.61 1018.45 1018.25 1018.04 1017.83 1017.65 1017.50 1017.40 1017.34 1017.31 1017.31 1017.31 1017.29 1017.25 1017.17 1017.05 1016.88 1016.68 1016.45 1016.21 1015.98 1015.77 1015.57 1015.41 1015.26 1015.13 1015.01
1017.13 1017.20 1017.29 1017.38 1017.48 1017.60 1017.74 1017.89 1018.07 1018.26 1018.45 1018.64 1018.81 1018.94 1019.03 1019.06 1019.03 1018.96 1018.85 1018.71 1018.56 1018.41 1018.28 1018.18 1018.10 1018.04 1018.00 1017.96 1017.90 1017.82 1017.71 1017.56 1017.37 1017.15 1016.90 1016.64 1016.38 1016.13 1015.89 1015.68 1015.50 1015.33 1015.19
1017.06 1017.15 1017.25 1017.35 1017.46 1017.58 1017.72 1017.87 1018.05 1018.24 1018.44 1018.65 1018.85 1019.03 1019.18 1019.29 1019.35 1019.37 1019.35 1019.29 1019.21 1019.11 1019.01 1018.91 1018.82 1018.73 1018.65 1018.56 1018.46 1018.34 1018.19 1018.00 1017.79 1017.55 1017.29 1017.01 1016.73 1016.46 1016.20 1015.97 1015.76 1015.57 1015.41
1016.95 1017.05 1017.16 1017.28 1017.40 1017.53 1017.67 1017.82 1017.99 1018.17 1018.37 1018.59 1018.81 1019.02 1019.22 1019.40 1019.54 1019.65 1019.71 1019.74 1019.72 1019.68 1019.61 1019.53 1019.43 1019.32 1019.20 1019.07 1018.93 1018.77 1018.58 1018.37 1018.14 1017.89 1017.62 1017.34 1017.05 1016.78 1016.52 1016.27 1016.05 1015.85 1015.67
1016.81 1016.92 1017.04 1017.17 1017.31 1017.45 1017.59 1017.74 1017.90 1018.08 1018.27 1018.48 1018.71 1018.95 1019.18 1019.40 1019.60 1019.78 1019.91 1020.00 1020.06 1020.07 1020.04 1019.98 1019.88 1019.77 1019.63 1019.47 1019.29 1019.10 1018.89 1018.67 1018.43 1018.17 1017.91 1017.63 1017.36 1017.09 1016.83 1016.59 1016.36 1016.15 1015.96
1016.65 1016.77 1016.90 1017.05 1017.20 1017.35 1017.51 1017.66 1017.81 1017.98 1018.17 1018.37 1018.59 1018.82 1019.07 1019.31 1019.55 1019.76 1019.95 1020.10 1020.20 1020.26 1020.27 1020.24 1020.16 1020.05 1019.91 1019.75 1019.56 1019.35 1019.14 1018.91 1018.67 1018.43 1018.18 1017.92 1017.66 1017.41 1017.16 1016.92 1016.69 1016.47 1016.27
1016.50 1016.62 1016.76 1016.92 1017.08 1017.25 1017.41 1017.57 1017.73 1017.89 1018.06 1018.25 1018.45 1018.67 1018.91 1019.16 1019.41 1019.65 1019.87 1020.05 1020.19 1020.29 1020.34 1020.34 1020.29 1020.20 1020.08 1019.92 1019.74 1019.55 1019.34 1019.12 1018.90 1018.67 1018.43 1018.20 1017.96 1017.72 1017.49 1017.26 1017.03 1016.82 1016.61
1016.36 1016.46 1016.61 1016.77 1016.95 1017.13 1017.31 1017.47 1017.63 1017.79 1017.95 1018.13 1018.31 1018.52 1018.74 1018.98 1019.23 1019.47 1019.70 1019.91 1020.08 1020.21 1020.30 1020.34 1020.33 1020.27 1020.18 1020.05 1019.89 1019.72 1019.53 1019.33 1019.12 1018.92 1018.70 1018.49 1018.27 1018.05 1017.83 1017.61 1017.39 1017.18 1016.98
Thickness
5685 5684 5683 5685 5687 5688 5689 5691 5694 5696 5697 5699 5699 5699 5698 5696 5694 5691 5689 5687 5686 5685 5685 5684 5683 5683 5681 5680 5679 5677 5675 5673 5670 5675 5677 5680 5681 5682 5682 5682 5685 5683 5683
5676 5677 5677 5680 5682 5683 5685 5688 5691 5692 5694 5696 5695 5693 5692 5690 5688 5686 5684 5682 5681 5679 5680 5680 5679 5679 5678 5677 5676 5675 5673 5673 5670 5669 5672 5672 5674 5677 5678 5679 5681 5682 5683
5672 5673 5674 5676 5678 5680 5683 5685 5687 5689 5689 5690 5689 5688 5686 5684 5683 5681 5680 5679 5677 5676 5676 5676 5676 5675 5673 5673 5673 5672 5671 5671 5669 5667 5667 5667 5667 5669 5670 5673 5676 5678 5679
5668 5668 5669 5671 5674 5677 5679 5681 5682 5683 5684 5684 5684 5683 5682 5679 5678 5677 5675 5675 5673 5672 5672 5672 5672 5671 5671 5671 5670 5670 5668 5667 5665 5664 5662 5662 5662 5662 5664 5666 5668 5672 5674
5663 5664 5665 5667 5670 5671 5673 5675 5676 5676 5677 5678 5678 5677 5676 5674 5674 5672 5671 5669 5668 5667 5667 5668 5668 5665 5663 5664 5665 5665 5664 5663 5662 5660 5659 5658 5658 5656 5658 5661 5662 5666 5669
5659 5659 5660 5662 5663 5664 5666 5667 5668 5668 5669 5670 5670 5670 5669 5668 5665 5662 5662 5662 5662 5661 5661 5662 5661 5659 5657 5655 5656 5656 5658 5659 5659 5658 5657 5656 5657 5656 5655 5654 5655 5657 5660
5655 5656 5657 5657 5657 5658 5659 5660 5659 5660 5660 5660 5661 5662 5661 5660 5656 5654 5652 5655 5657 5657 5657 5656 5654 5655 5651 5656 5653 5650 5652 5652 5652 5655 5654 5654 5654 5654 5652 5651 5651 5652 5654
5652 5652 5652 5652 5652 5651 5651 5650 5650 5651 5651 5651 5652 5652 5652 5651 5648 5648 5647 5650 5652 5651 5651 5651 5650 5651 5649 5650 5652 5652 5653 5652 5650 5651 5653 5653 5652 5652 5651 5650 5649 5648 5649
5647 5647 5647 5646 5644 5644 5643 5642 5642 5642 5642 5642 5641 5642 5642 5643 5641 5641 5641 5645 5645 5645 5646 5645 5644 5645 5640 5639 5642 5645 5646 5648 5645 5644 5644 5645 5644 5645 5645 5646 5645 5643 5643
5643 5642 5641 5640 5638 5636 5636 5635 5634 5634 5633 5632 5631 5631 5633 5633 5632 5634 5634 5639 5638 5638 5637 5637 5633 5634 5632 5632 5638 5641 5640 5643 5643 5643 5642 5642 5643 5643 5640 5643 5643 5641 5641
5639 5638 5637 5636 5634 5632 5631 5629 5627 5626 5625 5624 5623 5622 5622 5622 5624 5625 5626 5631 5631 5631 5630 5630 5629 5625 5626 5627 5629 5634 5632 5634 5637 5638 5639 5639 5640 5640 5639 5639 5639 5638 5637
5637 5636 5634 5633 5631 5629 5626 5623 5621 5619 5618 5617 5617 5616 5616 5616 5615 5616 5618 5619 5621 5624 5623 5623 5622 5618 5619 5620 5623 5622 5624 5626 5631 5632 5632 5632 5633 5633 5633 5634 5634 5633 5633
5638 5635 5634 5632 5628 5625 5622 5619 5616 5614 5612 5610 5609 5609 5609 5609 5609 5609 5610 5610 5611 5614 5614 5610 5611 5611 5612 5615 5614 5615 5619 5623 5624 5624 5624 5624 5624 5625 5625 5625 5626 5626 5626
5639 5637 5635 5633 5629 5624 5618 5615 5612 5609 5607 5604 5603 5602 5603 5603 5603 5604 5606 5606 5605 5606 5606 5603 5603 5604 5607 5607 5609 5612 5615 5615 5616 5617 5617 5617 5617 5617 5616 5617 5617 5617 5618
5643 5640 5637 5633 5629 5624 5619 5612 5609 5604 5600 5599 5598 5598 5597 5597 5593 5592 5596 5599 5599 5598 5600 5601 5601 5601 5601 5601 5603 5604 5606 5608 5610 5611 5611 5611 5611 5611 5609 5609 5609 5610 5609
5646 5642 5638 5635 5630 5627 5623 5616 5605 5603 5599 5596 5594 5594 5595 5590 5589 5589 5589 5589 5590 5591 5594 5593 5592 5592 5592 5593 5595 5596 5598 5600 5602 5604 5605 5605 5604 5603 5603 5602 5602 5602 5601
5647 5643 5640 5637 5633 5630 5626 5621 5615 5607 5601 5597 5594 5592 5591 5589 5588 5587 5587 5586 5586 5588 5588 5586 5586 5586 5586 5587 5588 5589 5591 5593 5596 5597 5598 5598 5598 5597 5597 5596 5595 5595 5594
5650 5643 5641 5638 5635 5632 5628 5623 5619 5615 5611 5605 5597 5592 5590 5589 5588 5587 5587 5588 5587 5585 5583 5582 5581 5582 5582 5582 5583 5585 5586 5588 5590 5591 5592 5592 5591 5591 5590 5589 5588 5586 5586
5652 5648 5644 5640 5637 5633 5630 5626 5622 5617 5613 5608 5605 5599 5593 5591 5590 5588 5589 5588 5585 5582 5581 5579 5578 5579 5579 5579 5580 5581 5583 5584 5584 5585 5585 5584 5584 5584 5583 5582 5581 5577 5577
5653 5646 5644 5643 5640 5636 5633 5629 5625 5620 5616 5611 5606 5602 5600 5597 5594 5591 5588 5586 5584 5582 5580 5579 5577 5577 5577 5577 5578 5579 5581 5581 5581 5581 5580 5580 5579 5578 5577 5577 5576 5574 5572
5657 5651 5643 5645 5642 5639 5635 5632 5628 5623 5618 5613 5608 5602 5598 5599 5595 5591 5589 5586 5584 5582 5581 5579 5578 5577 5576 5577 5577 5578 5579 5579 5579 5578 5578 5577 5576 5576 5575 5573 5572 5569 5567
5661 5656 5652 5649 5644 5640 5638 5634 5631 5626 5622 5617 5611 5606 5600 5600 5597 5593 5590 5588 5585 5583 5582 5581 5580 5577 5576 5576 5577 5577 5578 5578 5577 5576 5576 5575 5575 5574 5572 5571 5568 5566 5563
5663 5659 5655 5651 5647 5640 5639 5637 5633 5630 5626 5621 5617 5611 5607 5603 5600 5596 5593 5591 5588 5586 5584 5582 5581 5580 5578 5577 5577 5577 5577 5577 5576 5574 5574 5574 5574 5573 5570 5568 5565 5562 5558
5665 5661 5658 5654 5650 5647 5643 5640 5636 5632 5629 5625 5620 5615 5610 5606 5603 5599 5597 5594 5592 5589 5586 5584 5583 5581 5580 5579 5578 5577 5576 5575 5575 5575 5574 5573 5573 5571 5569 5565 5562 5559 5555
5667 5664 5660 5657 5653 5650 5647 5643 5640 5636 5632 5628 5624 5619 5614 5609 5605 5602 5599 5597 5594 5592 5589 5587 5585 5583 5582 5581 5580 5578 5575 5574 5574 5574 5574 5574 5572 5569 5566 5563 5559 5556 5553
5667 5665 5662 5659 5656 5653 5649 5646 5643 5639 5635 5631 5627 5622 5617 5612 5609 5605 5602 5600 5597 5594 5592 5589 5587 5585 5583 5582 5579 5577 5576 5575 5574 5573 5573 5573 5570 5566 5564 5561 5558 5554 5550